Precipitable_Water
0.24 0.24 0.25 0.25 0.25 0.25 0.25 0.24 0.24 0.22 0.21 0.20 0.19 0.18 0.18 0.17 0.17 0.16 0.15 0.13 0.12 0.12 0.12 0.11 0.11 0.11 0.10 0.10 0.10 0.09 0.09 0.08 0.08 0.08 0.07 0.07 0.07 0.07 0.06 0.06 0.06 0.06
0.24 0.25 0.25 0.25 0.25 0.25 0.25 0.25 0.24 0.23 0.22 0.20 0.19 0.18 0.18 0.17 0.17 0.16 0.15 0.13 0.12 0.12 0.12 0.11 0.11 0.11 0.10 0.10 0.10 0.09 0.09 0.08 0.08 0.08 0.08 0.07 0.07 0.07 0.06 0.06 0.06 0.06
0.25 0.25 0.26 0.26 0.26 0.26 0.27 0.26 0.25 0.23 0.22 0.21 0.20 0.19 0.18 0.18 0.17 0.16 0.15 0.13 0.12 0.12 0.12 0.11 0.11 0.11 0.10 0.10 0.10 0.09 0.09 0.08 0.08 0.08 0.08 0.07 0.07 0.07 0.07 0.06 0.06 0.06
0.26 0.26 0.26 0.27 0.27 0.27 0.27 0.27 0.25 0.24 0.22 0.21 0.20 0.19 0.18 0.18 0.17 0.16 0.15 0.13 0.12 0.12 0.12 0.11 0.11 0.11 0.10 0.10 0.10 0.09 0.09 0.08 0.08 0.08 0.08 0.08 0.07 0.07 0.07 0.06 0.06 0.06
0.27 0.27 0.27 0.28 0.28 0.28 0.28 0.27 0.25 0.24 0.22 0.21 0.20 0.19 0.18 0.18 0.17 0.16 0.14 0.13 0.12 0.12 0.11 0.11 0.11 0.11 0.10 0.10 0.09 0.09 0.09 0.08 0.08 0.08 0.08 0.07 0.07 0.07 0.07 0.07 0.06 0.06
0.28 0.28 0.28 0.28 0.28 0.28 0.27 0.26 0.25 0.24 0.23 0.21 0.20 0.19 0.18 0.17 0.17 0.16 0.14 0.12 0.12 0.12 0.11 0.11 0.11 0.11 0.10 0.10 0.09 0.09 0.08 0.08 0.08 0.08 0.08 0.07 0.07 0.07 0.07 0.07 0.06 0.06
0.28 0.28 0.29 0.29 0.29 0.28 0.27 0.26 0.25 0.24 0.23 0.21 0.20 0.19 0.18 0.17 0.17 0.15 0.13 0.12 0.12 0.12 0.11 0.11 0.11 0.11 0.10 0.10 0.09 0.09 0.08 0.08 0.08 0.08 0.08 0.07 0.07 0.07 0.07 0.07 0.06 0.06
0.29 0.29 0.30 0.29 0.28 0.27 0.26 0.26 0.25 0.24 0.22 0.21 0.20 0.19 0.18 0.17 0.16 0.14 0.13 0.12 0.12 0.11 0.11 0.11 0.11 0.10 0.10 0.09 0.09 0.08 0.08 0.08 0.08 0.08 0.08 0.07 0.07 0.07 0.07 0.07 0.07 0.06
0.30 0.30 0.30 0.29 0.28 0.27 0.26 0.25 0.24 0.23 0.22 0.20 0.19 0.19 0.18 0.17 0.16 0.14 0.12 0.12 0.12 0.11 0.11 0.11 0.11 0.10 0.10 0.09 0.09 0.08 0.08 0.08 0.08 0.08 0.08 0.07 0.07 0.07 0.07 0.07 0.06 0.06
0.30 0.30 0.29 0.28 0.27 0.26 0.25 0.24 0.24 0.23 0.21 0.20 0.19 0.18 0.17 0.16 0.15 0.13 0.12 0.12 0.11 0.11 0.11 0.11 0.10 0.10 0.09 0.09 0.09 0.08 0.08 0.08 0.08 0.08 0.08 0.07 0.07 0.07 0.07 0.07 0.06 0.06
0.30 0.29 0.28 0.27 0.26 0.25 0.24 0.24 0.23 0.22 0.21 0.20 0.19 0.17 0.17 0.16 0.14 0.12 0.12 0.11 0.11 0.11 0.11 0.11 0.10 0.10 0.09 0.09 0.09 0.08 0.08 0.08 0.08 0.08 0.08 0.07 0.07 0.07 0.07 0.07 0.06 0.06
0.29 0.28 0.27 0.26 0.25 0.24 0.24 0.23 0.23 0.21 0.20 0.19 0.18 0.17 0.16 0.15 0.13 0.12 0.12 0.11 0.11 0.11 0.11 0.10 0.10 0.09 0.09 0.09 0.09 0.08 0.08 0.08 0.08 0.08 0.08 0.08 0.07 0.07 0.07 0.07 0.07 0.06
0.28 0.27 0.26 0.25 0.24 0.24 0.24 0.23 0.22 0.21 0.19 0.18 0.17 0.16 0.15 0.13 0.12 0.12 0.11 0.11 0.11 0.11 0.10 0.10 0.09 0.09 0.09 0.09 0.09 0.08 0.08 0.08 0.08 0.08 0.08 0.07 0.07 0.07 0.07 0.07 0.07 0.06
0.27 0.26 0.25 0.24 0.24 0.24 0.23 0.22 0.21 0.20 0.18 0.18 0.17 0.16 0.14 0.12 0.12 0.11 0.11 0.11 0.11 0.11 0.10 0.10 0.09 0.09 0.09 0.09 0.08 0.08 0.08 0.08 0.08 0.08 0.07 0.07 0.07 0.07 0.07 0.07 0.07 0.07
0.26 0.25 0.24 0.24 0.23 0.23 0.22 0.21 0.20 0.19 0.18 0.17 0.16 0.14 0.13 0.12 0.12 0.11 0.11 0.11 0.11 0.10 0.10 0.09 0.09 0.09 0.09 0.09 0.08 0.08 0.08 0.08 0.08 0.08 0.07 0.07 0.07 0.07 0.07 0.07 0.07 0.07
0.25 0.24 0.23 0.23 0.23 0.22 0.21 0.20 0.19 0.18 0.17 0.16 0.14 0.13 0.12 0.12 0.11 0.11 0.11 0.11 0.10 0.10 0.09 0.09 0.09 0.09 0.09 0.09 0.09 0.09 0.08 0.08 0.08 0.08 0.08 0.08 0.08 0.07 0.07 0.07 0.07 0.07
0.24 0.23 0.23 0.22 0.22 0.21 0.20 0.19 0.18 0.17 0.16 0.14 0.13 0.12 0.12 0.12 0.11 0.11 0.11 0.10 0.10 0.09 0.09 0.09 0.09 0.09 0.09 0.09 0.10 0.10 0.10 0.10 0.09 0.09 0.09 0.08 0.08 0.08 0.07 0.07 0.07 0.07
0.23 0.23 0.22 0.22 0.21 0.20 0.19 0.18 0.17 0.16 0.14 0.13 0.12 0.12 0.12 0.11 0.11 0.11 0.10 0.10 0.09 0.09 0.09 0.09 0.09 0.09 0.09 0.09 0.10 0.10 0.11 0.11 0.11 0.10 0.10 0.09 0.08 0.08 0.08 0.08 0.08 0.07
0.23 0.22 0.22 0.21 0.21 0.19 0.18 0.17 0.15 0.14 0.13 0.12 0.12 0.12 0.11 0.11 0.10 0.10 0.10 0.09 0.09 0.09 0.09 0.09 0.09 0.09 0.09 0.10 0.10 0.10 0.11 0.11 0.10 0.10 0.09 0.09 0.09 0.09 0.08 0.08 0.08 0.08
0.22 0.22 0.21 0.21 0.20 0.18 0.16 0.15 0.14 0.13 0.12 0.12 0.12 0.11 0.11 0.10 0.10 0.09 0.09 0.09 0.09 0.09 0.09 0.09 0.08 0.08 0.09 0.09 0.10 0.10 0.10 0.10 0.10 0.10 0.10 0.09 0.09 0.09 0.08 0.08 0.08 0.08
0.22 0.21 0.21 0.20 0.18 0.16 0.15 0.14 0.13 0.13 0.12 0.12 0.11 0.11 0.10 0.10 0.09 0.09 0.09 0.09 0.09 0.09 0.09 0.08 0.08 0.08 0.09 0.09 0.10 0.10 0.10 0.10 0.10 0.10 0.10 0.09 0.09 0.09 0.08 0.08 0.08 0.08
0.21 0.21 0.20 0.18 0.16 0.15 0.14 0.13 0.13 0.12 0.12 0.11 0.11 0.10 0.10 0.09 0.09 0.09 0.09 0.09 0.09 0.09 0.08 0.08 0.08 0.09 0.09 0.09 0.10 0.10 0.10 0.10 0.10 0.09 0.09 0.09 0.08 0.08 0.08 0.08 0.08 0.08
0.21 0.20 0.18 0.16 0.15 0.13 0.13 0.13 0.12 0.12 0.11 0.11 0.10 0.10 0.09 0.09 0.09 0.09 0.09 0.09 0.08 0.08 0.08 0.08 0.08 0.08 0.09 0.09 0.09 0.09 0.10 0.09 0.09 0.09 0.08 0.08 0.08 0.08 0.08 0.07 0.07 0.07
0.20 0.18 0.16 0.14 0.13 0.13 0.13 0.12 0.12 0.12 0.11 0.10 0.09 0.09 0.09 0.08 0.09 0.09 0.09 0.08 0.08 0.08 0.08 0.08 0.08 0.08 0.08 0.09 0.09 0.09 0.09 0.09 0.09 0.08 0.08 0.08 0.08 0.08 0.08 0.07 0.07 0.07
0.18 0.16 0.14 0.13 0.13 0.13 0.13 0.12 0.12 0.11 0.10 0.10 0.09 0.09 0.09 0.09 0.08 0.08 0.08 0.08 0.08 0.08 0.08 0.08 0.08 0.08 0.08 0.08 0.09 0.09 0.09 0.09 0.09 0.08 0.07 0.07 0.07 0.07 0.07 0.07 0.07 0.07
0.16 0.15 0.14 0.13 0.13 0.13 0.12 0.12 0.11 0.10 0.10 0.09 0.09 0.09 0.08 0.08 0.08 0.08 0.08 0.08 0.08 0.08 0.08 0.08 0.08 0.07 0.08 0.08 0.08 0.09 0.09 0.09 0.09 0.08 0.07 0.07 0.07 0.07 0.06 0.07 0.07 0.06
Wind_Speed
47 47 48 48 48 48 48 48 48 47 47 46 46 46 46 46 46 46 46 47 47 47 47 47 47 47 47 48 48 49 49 50 50 51 51 52 52 52 53 53 53 53
48 48 48 48 49 49 48 48 48 47 47 47 47 46 46 46 46 47 47 47 47 47 47 47 47 47 48 48 48 49 49 50 50 51 52 52 53 53 53 53 53 53
48 48 48 49 49 49 49 48 48 48 47 47 47 47 47 47 47 47 47 47 47 47 47 47 47 48 48 48 49 49 50 50 51 51 52 53 53 53 53 53 53 53
48 48 48 49 49 49 48 48 48 48 47 47 47 47 47 47 47 47 47 47 48 48 47 47 48 48 48 49 49 50 50 51 51 52 52 53 53 54 54 54 53 53
48 48 48 48 48 48 48 48 48 48 48 47 47 47 47 47 47 48 48 48 48 48 48 48 48 48 49 49 50 50 50 51 52 52 53 53 54 54 54 54 54 53
47 48 48 48 48 48 48 48 48 48 48 47 47 47 47 47 48 48 48 48 48 48 48 48 48 48 49 49 50 50 51 52 52 53 53 54 54 54 54 54 54 53
47 47 47 48 48 48 48 48 48 48 47 47 47 47 47 47 48 48 48 48 48 48 48 48 48 49 49 50 50 51 51 52 53 53 53 54 54 54 54 54 53 53
47 47 47 47 47 48 48 48 48 47 47 47 47 47 47 47 48 48 48 48 48 48 48 48 49 49 50 50 51 51 52 53 53 53 54 54 54 55 54 54 53 53
46 46 46 47 47 47 48 48 47 47 47 47 47 47 47 47 48 48 48 48 48 48 48 48 49 49 50 51 51 52 53 53 53 54 54 54 55 55 54 54 53 53
45 45 46 46 47 47 47 47 47 47 46 46 46 47 47 47 48 48 48 47 48 48 48 49 49 50 50 51 52 53 53 53 54 54 54 55 55 55 54 54 53 52
45 45 45 46 47 47 47 46 46 46 46 46 46 46 47 47 47 47 47 47 48 48 48 49 49 50 51 52 52 53 54 54 54 55 55 55 55 55 54 53 53 52
44 44 45 46 46 47 46 45 45 45 45 45 46 46 47 47 47 47 47 47 48 48 48 49 50 50 51 52 53 53 54 54 55 55 55 55 55 55 54 53 52 51
44 44 45 46 46 46 45 45 45 44 45 45 45 46 46 46 47 47 47 47 47 48 49 49 50 51 52 52 53 53 54 54 55 55 55 55 55 54 54 53 51 50
44 45 45 46 45 45 44 44 44 44 44 45 45 46 46 46 46 46 47 47 47 48 49 49 50 51 52 53 53 54 54 55 55 55 56 55 55 54 53 52 50 49
44 45 45 45 44 44 43 43 43 43 44 44 45 45 45 46 46 46 46 47 47 48 49 49 50 51 52 53 53 54 54 55 55 55 55 55 54 53 52 51 49 48
44 44 44 43 43 43 43 43 43 43 44 44 44 45 45 45 45 46 46 47 47 48 49 50 51 52 53 53 54 54 55 55 55 55 55 54 53 52 51 49 48 46
43 43 43 43 42 42 42 42 42 43 43 44 44 44 44 45 45 45 46 47 47 48 49 50 51 52 53 54 54 55 55 55 55 55 54 53 52 51 50 48 46 44
42 42 42 42 42 41 41 42 42 42 43 43 44 44 44 44 45 45 46 47 48 49 50 51 52 52 53 54 54 55 55 55 55 54 53 52 51 49 47 45 43 42
42 41 41 41 41 41 41 41 41 42 42 43 43 43 44 44 45 45 46 47 48 49 50 51 52 52 53 54 54 55 55 55 54 53 52 51 49 47 45 43 41 40
41 41 41 41 41 40 40 41 41 42 42 42 43 43 43 44 44 45 46 47 49 50 51 51 52 52 53 54 54 54 54 54 53 52 51 49 47 45 43 41 40 39
41 41 40 40 40 40 40 40 41 41 42 42 42 43 43 44 45 46 47 48 49 50 51 52 52 52 53 53 53 54 53 53 51 50 48 47 45 43 41 40 39 38
40 40 40 40 39 39 40 40 41 41 41 41 42 42 43 44 45 46 47 48 49 50 51 52 52 52 53 53 53 53 52 51 49 48 46 44 43 41 40 39 38 37
40 40 39 39 39 39 40 40 40 41 41 41 42 42 43 44 45 46 47 48 49 50 51 51 51 52 52 52 52 52 51 49 47 46 44 42 41 40 38 37 36 36
40 39 38 38 38 39 40 40 40 40 40 41 42 43 44 45 46 47 47 48 49 50 50 51 51 51 52 52 51 50 49 47 45 43 42 40 39 38 36 36 35 35
39 38 38 38 39 39 39 39 39 40 40 41 42 43 44 45 46 47 48 48 49 50 50 51 51 51 51 51 50 48 47 45 43 41 40 39 38 37 35 35 34 34
38 38 38 38 38 38 39 39 39 40 40 41 42 43 44 45 46 47 48 49 49 49 50 50 50 50 49 49 48 46 44 42 41 39 38 37 36 35 34 33 33 33
Wind_Direction
285 285 286 286 287 288 288 289 290 290 291 292 292 293 293 293 293 293 294 294 294 294 294 294 294 294 295 295 295 295 296 296 297 298 298 299 299 299 298 298 298 298
284 285 286 287 287 288 288 289 289 290 291 291 292 292 293 293 293 293 294 294 294 293 293 294 294 294 295 295 295 295 296 296 297 298 298 299 299 299 298 298 298 298
285 285 286 286 287 287 288 289 289 290 291 291 291 292 292 292 293 293 294 294 294 293 293 293 294 294 294 295 295 296 296 297 297 298 298 299 299 299 298 298 298 297
285 286 286 287 287 288 288 289 289 290 291 291 291 292 292 292 293 293 294 294 293 293 293 293 294 294 294 295 295 296 296 297 297 298 298 299 299 299 298 298 298 297
286 286 287 287 288 288 288 289 289 290 290 291 291 291 292 292 293 293 294 293 293 293 293 293 294 294 295 295 295 296 296 297 297 298 298 299 299 299 298 298 298 297
287 287 287 287 288 288 288 289 289 289 290 290 291 291 291 292 293 293 293 293 293 293 293 293 294 294 295 295 295 296 296 297 297 298 298 299 299 299 298 298 297 296
287 287 287 287 288 288 288 289 289 289 289 290 290 291 291 292 293 293 293 293 293 293 293 294 294 294 295 295 296 296 297 297 297 298 298 299 299 298 298 298 297 296
287 288 288 288 288 288 289 289 289 289 289 289 290 291 291 292 293 293 292 292 293 293 293 294 294 294 295 295 296 296 297 297 297 298 298 298 298 298 298 297 297 296
288 288 288 288 288 289 289 289 289 288 288 289 290 291 291 292 292 292 292 292 293 293 293 294 294 295 295 295 296 297 297 297 297 298 298 298 298 298 297 297 296 295
288 288 288 288 289 289 289 289 288 288 288 289 290 291 291 292 292 292 292 292 293 293 294 294 295 295 295 296 296 297 297 297 297 297 298 298 297 297 297 297 296 295
288 288 289 289 289 289 289 288 288 288 289 289 290 291 291 292 292 292 292 292 293 293 294 294 295 295 296 296 297 297 297 297 298 298 298 298 297 297 297 296 295 294
288 289 289 289 290 290 289 289 288 288 289 290 290 291 291 292 292 292 292 293 293 294 294 295 295 296 296 297 297 297 297 298 298 298 298 297 297 297 297 296 295 294
289 290 290 290 290 290 290 289 289 289 289 290 290 291 292 292 292 292 292 293 294 294 295 295 296 296 297 297 298 298 298 298 298 298 298 297 297 297 296 295 294 293
290 291 291 291 291 290 290 289 289 289 289 290 291 291 292 292 292 292 293 293 294 295 295 296 296 297 298 298 298 298 298 298 298 298 298 298 297 297 296 295 293 292
292 292 292 292 291 291 290 290 289 290 290 291 291 292 292 292 292 293 293 294 295 295 296 297 297 298 298 299 299 299 299 299 298 298 298 298 297 297 296 294 293 291
293 293 293 292 291 291 290 290 290 290 291 291 292 292 293 293 293 294 294 295 296 296 297 298 298 299 299 299 299 299 299 299 298 298 298 298 297 296 295 293 292 290
294 293 293 292 291 291 291 290 290 291 291 292 292 292 293 293 294 294 295 296 296 297 298 298 299 300 299 299 299 299 299 299 298 298 298 297 296 295 294 293 291 289
294 294 293 292 292 291 291 291 291 292 292 292 292 293 293 294 295 295 296 297 297 298 298 299 300 300 300 299 299 299 299 299 299 299 298 297 296 295 293 291 289 287
294 294 293 293 292 292 292 292 292 292 292 292 293 293 294 295 295 296 297 297 298 299 299 300 301 301 300 300 300 300 299 299 299 299 298 297 296 295 293 291 289 287
295 294 293 293 293 292 292 293 292 292 292 293 294 294 295 296 296 297 297 298 299 299 300 301 301 301 301 300 300 300 300 299 299 299 298 297 295 294 292 290 288 286
295 294 294 293 293 293 293 293 293 293 293 294 295 296 296 297 297 298 298 299 300 301 301 302 302 302 301 301 301 301 300 300 299 298 297 296 295 293 291 289 288 285
296 295 294 294 294 294 293 293 294 294 295 295 296 297 297 298 298 299 300 300 301 302 302 303 303 302 302 302 301 301 301 300 299 298 297 295 294 292 290 289 287 285
296 296 296 295 295 294 294 294 295 295 296 296 297 298 298 299 299 300 301 301 302 302 303 303 304 303 303 302 302 301 301 300 299 298 297 295 294 292 290 288 286 284
298 297 296 295 295 295 295 295 296 296 297 298 298 298 299 300 301 301 302 302 303 303 303 304 305 304 303 303 302 302 301 300 299 298 296 295 293 291 290 288 286 283
298 297 296 296 296 296 296 296 297 297 298 299 299 300 301 301 302 302 303 303 304 304 304 304 305 305 304 303 303 302 301 300 298 297 296 294 293 291 289 287 286 284
298 297 297 297 296 297 297 297 298 299 299 300 300 301 302 302 302 303 303 304 304 305 305 305 305 305 305 303 303 301 300 299 298 297 295 293 292 291 289 287 286 285